NOAA NWS Hourly Roundups by Site

Regional Weather Roundup for Upton, NY

To Select Another Site Choose from List

Select Site:  

000
ASUS41 KOKX 250914
RWROKX

Regional Weather Roundup
National Weather Service New York NY
400 AM EST TUE FEB 25 2020

Note: "FAIR" indicates few or no clouds below 12,000 feet with no
significant weather and/or obstructions to visibility.

NYZ071-072-176-178-NJZ106-104-251000-
New York City Metro Area

CITY           SKY/WX    TMP DP  RH WIND       PRES   REMARKS
Central Park   FAIR      49  39  68 SW5       29.91S
Bronx Lehman C   N/A     48  39  71 SW6         N/A
LaGuardia Arpt CLOUDY    49  38  65 SW5       29.89S
Queens College   N/A    N/A N/A N/A S6          N/A
Kennedy Intl   CLOUDY    43  42  97 S7        29.90F
Breezy Point     N/A     43 N/A N/A S5          N/A
Brooklyn Coll    N/A     48  39  71 S5          N/A
Staten Island    N/A     46  39  76 SW3         N/A
Newark/Liberty MOCLDY    47  38  71 SW6       29.89S
Teterboro      FAIR      46  37  71 SW3       29.88S
$$

NYZ177-179-078>081-251000-
Long Island New York

CITY           SKY/WX    TMP DP  RH WIND       PRES   REMARKS
Jones Beach      N/A     43 N/A N/A SW5         N/A
Wantagh          N/A     45  43  93 S6          N/A
Hempstead        N/A     45  41  87 S3        29.93
Matinecock Pt    N/A     46 N/A N/A SW6         N/A
Farmingdale    CLOUDY    46  41  82 S7        29.90S
MacArthur/ISP  CLOUDY    45  43  93 SW8       29.90F
Stony Brook      N/A     45  41  87 S2          N/A
Shirley        CLOUDY    45  41  86 SW7       29.92S
Mt Sinai Harb    N/A    N/A N/A N/A S6          N/A
Westhampton    CLOUDY    44  41  89 SW7       29.93S
East Hampton   CLOUDY    44  42  93 SW5       29.92S
Southold         N/A     45  41  87 SW5         N/A
Montauk          N/A     46  42  86 SW8       29.93S
$$

NYZ052-065-067-251000-
Hudson Valley

CITY           SKY/WX    TMP DP  RH WIND       PRES   REMARKS
White Plains   MOCLDY    41  35  79 CALM      29.87F
Larchmont Harb   N/A     41 N/A N/A N5          N/A
Croton On Huds   N/A     41 N/A N/A MISG        N/A
Somers           N/A     41  34  75 NE1         N/A
Brewster         N/A     39  32  75 CALM        N/A
Newburgh       MOCLDY    43  32  65 CALM      29.87R
Montgomery     FAIR      37  29  72 CALM      29.86S
Otisville        N/A     39  28  65 SW2         N/A
Warwick          N/A     43  32  65 SW1         N/A
Suffern          N/A     43  34  70 SW1         N/A
Poughkeepsie   MOCLDY    41  31  67 CALM      29.87R
Albany         CLOUDY    40  27  59 CALM      29.87S
$$

NJZ001-105-106-008-010-013-015-019>022-104-251000-
New Jersey

CITY           SKY/WX    TMP DP  RH WIND       PRES   REMARKS
Newark/Liberty MOCLDY    47  38  71 SW6       29.89S
Teterboro      FAIR      46  37  71 SW3       29.88S
Caldwell       FAIR      47  37  68 CALM      29.90S
Somerville     FAIR      39  31  72 CALM      29.88S
Linden         FAIR      47  38  71 CALM      29.91R
Perth Amboy      N/A     45 N/A N/A W1          N/A
Sussex         FAIR      38  29  70 CALM      29.88R
Andover          N/A     40  33  76 CALM      29.88S
Trenton        CLOUDY    46  41  82 CALM      29.90S
Millville      CLOUDY    46  41  82 CALM      29.91S
Atlantic City  MOCLDY    47  42  83 SW6       29.91S
Wrightstown    CLOUDY    46  42  86 SW6       29.90
Toms River     CLOUDY    46 N/A N/A SW5       29.91S
Belmar         MOCLDY    45  45 100 S5        29.91S
$$

PAZ047>061-062-071-251000-
Eastern Pennsylvania

CITY           SKY/WX    TMP DP  RH WIND       PRES   REMARKS
Philadelphia   CLOUDY    47  41  80 SW7       29.90F
Allentown      CLOUDY    43  33  68 NW3       29.88S
Scranton       CLOUDY    46  26  45 CALM      29.86R
$$

CTZ002-004>006-009-010-012-RIZ004-006-007-MAZ004-011-015-251000-
Southern New England

 In CT

CITY           SKY/WX    TMP DP  RH WIND       PRES   REMARKS
Bradley Intl   CLOUDY    42  33  70 SW3       29.91R
Hartford       CLOUDY    44  38  79 S3        29.91R
Danbury        CLOUDY    39  31  72 CALM      29.90R
Wtrbury/Oxford CLOUDY    40  37  89 CALM      29.89S
Norwalk Harbor   N/A     39 N/A N/A N2          N/A
Bridgeport     CLOUDY    43  39  86 SW5       29.90S
Meriden        CLOUDY    40  36  86 CALM      29.90S
New Haven      CLOUDY    45  41  86 CALM      29.91S
Chester        PTSUNNY   43  41  93 SW7       29.91R
Groton         CLOUDY    42  42 100 SW5       29.91S
Willimantic    CLOUDY    37  31  78 NE3       29.92S

 In RI

CITY           SKY/WX    TMP DP  RH WIND       PRES   REMARKS
Providence     CLOUDY    43  41  93 S5        29.91F
Block Island   CLOUDY    44  42  93 SW13      29.93F
Westerly       CLOUDY    46  40  79 SW3       29.92F

In MA

CITY           SKY/WX    TMP DP  RH WIND       PRES   REMARKS
Boston         CLOUDY    45  36  70 S5        29.91F
Worcester      CLOUDY    39  33  79 S10       29.89R WCI  32
Westfield      CLOUDY    36  28  73 CALM      29.90R
Provincetown   CLOUDY    43  41  93 S12       29.94S
Nantucket      CLOUDY    44  41  89 SW9       29.95F
$$

ANZ330-335-338-340-345-350-353-355-251000-
Coastal Marine Observations


STATION/POSITION TIME  SKY/WX   TEMP    WIND        PRES    VSBY  WAVE
                                AIR SEA DIR/SP/G                  HT/PER
                 (UTC)          (F)     (DEG/KT/KT) (MB)    (MI)  (FT/S)
NY Harb Entrance 0850            44     190/  8/ 10 1012.6          4/ 6
20 S Fire Island 0850            45 43              1012.7          4/ 5
Great South Bay  NOT AVBL
23 SSW Montauk P NOT AVBL
15 E Barnegat Li 0900               44                N/A           4/10
Hudson Canyon    0850            47 46              1014.2          5/11
Kings Point      0824            45 42  200/  7/  8 1012.9
Execution Rocks  0845            44 32  180/  6/  8   N/A
Western LI Sound 0820            41      30/  2/  4   N/A           0
Central LI Sound NOT AVBL
Robbins Reef     0824            47     190/  4/  5 1012.2
$$


>>>>>>>>>>>>>>>>>>>>>>>>>>>> KEY <<<<<<<<<<<<<<<<<<<<<<<<<<<
>                                                          <
>     SKY/WX - Sky Condition/Present Weather               <
>     TMP    - Temperature in Fahrenheit                   <
>     DP     - Dew Point in Fahrenheit                     <
>     RH     - Relative Humidity in Percent                <
>     WIND   - Direction (from) and Speed in MPH           <
>     PRES   - Mean Sea Level Pressure (inches of Hg)      <
>     WCI    - Wind Chill Index                            <
>     VSB    - Visibility in Miles                         <
>     HX     - Heat Index                                  <
>     TC     - Temperature in Celsius                      <
>     VRB    - Variable Wind Direction                     <
>                                                          <
>>>>>>>>>>>>>>>>>>>>>>>>>>>> KEY <<<<<<<<<<<<<<<<<<<<<<<<<<<



 

View Past Reports for Upton, NY.

Products Courtesy of NOAA-NWS
NWS Information Parsing Script by Ken True at Saratoga Weather - Script by SE Lincoln Weather.